Simultaneous Nadir Overpasses (SNOs) Predictions

Prediction of SNOs between NOAA-19 and TERRA Satellite Orbit:

Table of predicted SNOs for the next 14.0 days since TLE Epoch: 1/4/2020
Index Date (NOAA-19) Time (NOAA-19) Lat,Lon (NOAA-19) SZA (NOAA-19 ) Date (TERRA) Time (TERRA) Lat,Lon (TERRA) SZA (TERRA ) Distance(km) Time Diff (sec)
1 01/05/2020 18:06:26 79.11, -66.34 102.54 01/05/2020 18:07:35 79.08, -66.33 102.54 2.89 69
2 01/05/2020 18:57:19 -79.06, 101.33 77.48 01/05/2020 18:57:02 -79.08, 101.29 77.48 2.29 17
3 01/08/2020 00:30:46 79.07,-162.00 102.24 01/08/2020 00:30:45 79.09,-162.07 102.26 2.93 1
4 01/10/2020 06:04:02 -79.10, -65.45 78.07 01/10/2020 06:04:29 -79.10, -65.45 78.06 0.60 27
5 01/10/2020 06:55:07 79.06, 102.05 101.92 01/10/2020 06:53:56 79.06, 101.95 101.89 2.08 71
6 01/12/2020 11:37:29 79.11, 31.14 101.59 01/12/2020 11:38:12 79.11, 31.15 101.60 0.82 43
7 01/12/2020 12:28:23 -79.09,-161.36 78.43 01/12/2020 12:27:40 -79.07,-161.43 78.46 2.11 43
8 01/14/2020 17:10:45 -79.13, 127.77 78.80 01/14/2020 17:11:56 -79.12, 127.79 78.79 1.31 71
9 01/14/2020 18:01:49 79.08, -64.58 101.19 01/14/2020 18:01:22 79.11, -64.59 101.21 3.85 27




NCC Satellite Simultaneous Nadir Overpasses (SNOs) Prediction Service
